[[{"header":{"parameterUnit":"m.s-1","parameterCategory":2,"la1":30.2991,"la2":30.254,"lo1":-89.0895,"lo2":-89.0444,"dy":0.0017,"dx":0.0017,"nx":28,"ny":28,"refTime":"2024-12-02T03:00:00:Z","depth":"0","parameterNumber":2,"parameterNumberName":"U-component_of_CURRENTS"},"data":[0,0,0,0,0,0,0,0,0,0,0,0,0,0,0,0,0,0,0,0,0,0,0,0,0,0,0,0,0,0,0,0,0,0,0,0,0,0,0,0,0,0,0,0,0,0,0,0,0,0,0,0,0,0,0,0,0,0,0.3309,0.331,0,0.3346,0.3346,0.3346,0.3333,0.3332,0.3332,0.3331,0.3322,0.3322,0.3322,0,0,0,0,0,0,0,0,0,0,0,0,0,0.3239,0.324,0.3309,0.331,0.331,0.3346,0.3346,0.3346,0.3333,0.3332,0.3332,0.3331,0.3322,0.3322,0.3322,0,0,0,0,0,0,0,0,0,0,0,0,0,0.3268,0.324,0.3309,0.3311,0.3312,0.3346,0.3346,0.3346,0.3333,0.3332,0.3332,0.3331,0.3322,0.3322,0.3322,0.3338,0,0,0.3323,0.3323,0,0,0,0,0,0,0,0,0.3267,0.327,0.331,0.3311,0.3312,0.3337,0.3318,0.3343,0.3333,0.3321,0.3331,0.3331,0.3326,0.3326,0.3329,0.3338,0.3337,0.3323,0.3323,0.3323,0.3323,0,0,0,0,0,0,0,0.3265,0.3269,0.332,0.3311,0.3312,0.3315,0.3318,0.3323,0.3323,0.3322,0.3322,0.3333,0.3325,0.3329,0.3329,0.3337,0.3323,0.3323,0.3324,0.3324,0.3403,0.3405,0,0,0,0,0,0,0.3268,0.3267,0.3318,0.3321,0.3292,0.3317,0.332,0.3327,0.3324,0.3324,0.3333,0.3332,0.3329,0.3329,0.3329,0.3382,0.3323,0.3324,0.3324,0.3401,0.3403,0.3405,0,0,0,0,0,0,0.3267,0.3272,0.3317,0.3298,0.3304,0.3319,0.3327,0.3328,0.3336,0.3334,0.3332,0.3341,0.3328,0.3328,0.3347,0.338,0.3324,0.3324,0.3399,0.3402,0.3404,0.3466,0,0,0,0,0,0,0.3264,0.3271,0.3277,0.3298,0.3306,0.3345,0.3328,0.3329,0.3346,0.3344,0.334,0.3338,0.3328,0.3347,0.3348,0.3379,0.3324,0.3396,0.34,0.3403,0.3462,0.3471,0.3479,0,0,0,0,0,0.3262,0.3272,0.3277,0.3283,0.3313,0.3346,0.335,0.3355,0.3347,0.3357,0.3359,0.3339,0.3371,0.3349,0.3349,0.3381,0.3394,0.3399,0.3403,0.3458,0.3469,0.3479,0,0,0,0,0,0,0.324,0.3273,0.3278,0.3296,0.3324,0.3345,0.3358,0.3362,0.3372,0.337,0.3358,0.3357,0.3391,0.338,0.3356,0.3418,0.3382,0.3386,0.3424,0.3434,0.3442,0.3468,0.3325,0,0,0,0,0,0.3241,0.3258,0.3291,0.3306,0.3322,0.3342,0.3355,0.3364,0.3378,0.3381,0.338,0.3387,0.3411,0.3415,0.3428,0.3454,0.348,0.3478,0.3487,0.3494,0.3517,0.3607,0.3626,0.3419,0.3419,0.3419,0,0,0.3235,0.3258,0.3265,0.3303,0.3323,0.3354,0.3347,0.3376,0.3404,0.3379,0.3408,0.3417,0.3426,0.3463,0.3476,0.3454,0.3562,0.35,0.3505,0.3525,0.3614,0.3634,0.3652,0.3422,0.3422,0.3421,0,0,0.3239,0.3256,0.3275,0.3305,0.3347,0.3366,0.3378,0.3408,0.3423,0.3454,0.3456,0.3493,0.3499,0.3531,0.3544,0.361,0.3608,0.3604,0.3662,0.3749,0.3767,0.3783,0.3821,0.384,0.3603,0.3603,0.3604,0,0.3229,0.3263,0.3286,0.3319,0.3348,0.3373,0.3407,0.3433,0.3465,0.3494,0.3469,0.3544,0.3542,0.3623,0.3642,0.3631,0.3663,0.3618,0.3761,0.3778,0.3794,0.3829,0.3849,0.3607,0.3607,0.3606,0.3606,0,0.3253,0.3285,0.3303,0.3354,0.3384,0.3421,0.3466,0.3499,0.3515,0.3547,0.3623,0.364,0.3687,0.3695,0.3682,0.3797,0.3776,0.3765,0.3735,0.3819,0.3849,0.387,0.3612,0.3611,0.361,0.3609,0,0,0.3215,0.3303,0.3307,0.3337,0.3411,0.3431,0.3498,0.3568,0.3627,0.3657,0.3741,0.3785,0.3805,0.3824,0.3831,0.3901,0.402,0.3879,0.3882,0.3916,0.4189,0.4095,0.4107,0.4038,0.4042,0.4046,0.4157,0,0.3228,0.3285,0.3336,0.3391,0.3425,0.3486,0.3549,0.3615,0.3678,0.3763,0.3817,0.3891,0.3852,0.3889,0.3956,0.4018,0.4081,0.3989,0.4104,0.4107,0.4014,0.4131,0.3987,0.4069,0.4177,0.418,0.4183,0,0.3231,0.3272,0.3327,0.3419,0.3442,0.3481,0.3592,0.3661,0.3797,0.3856,0.395,0.3992,0.4104,0.4058,0.4208,0.4152,0.4179,0.4213,0.4218,0.4129,0.4053,0.4009,0.4101,0.4024,0.4214,0.4211,0.4209,0,0.3172,0.3264,0.3304,0.3334,0.3442,0.3482,0.3548,0.3679,0.376,0.393,0.3999,0.4134,0.42,0.4287,0.4323,0.4289,0.448,0.4437,0.4376,0.4367,0.4268,0.4243,0.4303,0.4557,0.4556,0.4556,0.4556,0,0.316,0.3189,0.3276,0.3293,0.3361,0.3447,0.3547,0.3652,0.381,0.3907,0.4037,0.4131,0.4266,0.4363,0.4393,0.4446,0.4534,0.4422,0.4414,0.4279,0.4256,0.4199,0.4161,0.456,0.4559,0.4558,0.4558,0,0.309,0.3149,0.3197,0.3298,0.3334,0.3377,0.3527,0.3601,0.3767,0.3904,0.3958,0.4162,0.4294,0.4392,0.4544,0.4517,0.4474,0.4575,0.4381,0.4348,0.4186,0.4156,0.4071,0.3937,0.4543,0.4541,0.454,0,0.3061,0.3076,0.3172,0.3196,0.3241,0.3323,0.3385,0.3563,0.3649,0.3895,0.3947,0.4138,0.4246,0.4438,0.4474,0.4543,0.4419,0.441,0.4319,0.4191,0.4155,0.3998,0.3879,0.4207,0.4203,0.42,0.4197,0,0.3002,0.3034,0.3068,0.3123,0.3171,0.3236,0.3335,0.3397,0.3597,0.3708,0.3866,0.3988,0.4199,0.4239,0.4342,0.4358,0.4211,0.4345,0.4296,0.3978,0.3733,0.3593,0.4087,0.417,0.4173,0.4175,0.4176,0.4177,0.2947,0.2952,0.2993,0.3039,0.3085,0.3117,0.3125,0.3237,0.3339,0.3479,0.3678,0.3802,0.3994,0.4141,0.4127,0.4048,0.4017,0.3941,0.394,0.381,0.3605,0.401,0.4026,0.4028,0.4029,0.4031,0.4032,0,0.2863,0.2877,0.2909,0.2937,0.2925,0.2994,0.3058,0.304,0.3078,0.3277,0.3391,0.3566,0.3657,0.3786,0.3828,0.3694,0.352,0.3592,0.3374,0.3294,0.3752,0.3661,0.3498,0.3498,0.3498,0.3498,0.3498,0.3498,0.2817,0.2798,0.2814,0.2762,0.277,0.2704,0.2697,0.2708,0.2807,0.2902,0.3009,0.317,0.3506,0.3675,0.3598,0.3495,0.3224,0.3073,0.305,0.3432,0.3465,0.3496,0.3403,0.3188,0.3188,0.2448,0.2443,0.2439]},{"header":{"parameterUnit":"m.s-1","parameterCategory":2,"la1":30.2991,"la2":30.254,"lo1":-89.0895,"lo2":-89.0444,"dy":0.0017,"dx":0.0017,"nx":28,"ny":28,"refTime":"2024-12-02T03:00:00:Z","depth":"0","parameterNumber":3,"parameterNumberName":"V-component_of_CURRENTS"},"data":[0,0,0,0,0,0,0,0,0,0,0,0,0,0,0,0,0,0,0,0,0,0,0,0,0,0,0,0,0,0,0,0,0,0,0,0,0,0,0,0,0,0,0,0,0,0,0,0,0,0,0,0,0,0,0,0,0,0,-0.0085,-0.0085,0,-0.0169,-0.017,-0.0171,-0.0227,-0.0227,-0.0227,-0.0227,-0.0315,-0.0317,-0.0319,0,0,0,0,0,0,0,0,0,0,0,0,0,-0.0037,-0.0038,-0.0085,-0.0085,-0.0086,-0.0169,-0.017,-0.0171,-0.0227,-0.0227,-0.0227,-0.0228,-0.0314,-0.0317,-0.032,0,0,0,0,0,0,0,0,0,0,0,0,0,-0.0085,-0.0038,-0.0085,-0.0122,-0.0126,-0.0168,-0.017,-0.0172,-0.0227,-0.0227,-0.0227,-0.0228,-0.0313,-0.0317,-0.032,-0.0336,0,0,-0.033,-0.0331,0,0,0,0,0,0,0,0,-0.0082,-0.0087,-0.0116,-0.012,-0.0124,-0.0185,-0.0185,-0.0226,-0.0227,-0.0191,-0.0227,-0.0228,-0.027,-0.0277,-0.0296,-0.034,-0.0344,-0.033,-0.0332,-0.0334,-0.0335,0,0,0,0,0,0,0,-0.0079,-0.0084,-0.0121,-0.0117,-0.0122,-0.0157,-0.0164,-0.0194,-0.0231,-0.0195,-0.0198,-0.0203,-0.0273,-0.0293,-0.0298,-0.0345,-0.033,-0.0333,-0.0335,-0.0336,-0.0402,-0.0402,0,0,0,0,0,0,-0.006,-0.0081,-0.0118,-0.0123,-0.01,-0.0157,-0.0165,-0.0168,-0.023,-0.0239,-0.0203,-0.0206,-0.0287,-0.0295,-0.0302,-0.0305,-0.0334,-0.0337,-0.0339,-0.0402,-0.0402,-0.0402,0,0,0,0,0,0,-0.0058,-0.0062,-0.0114,-0.0102,-0.0111,-0.0157,-0.016,-0.0169,-0.0184,-0.0236,-0.0246,-0.0207,-0.0287,-0.0297,-0.032,-0.0309,-0.0338,-0.0341,-0.0402,-0.0402,-0.0402,-0.0323,0,0,0,0,0,0,-0.0057,-0.0061,-0.0057,-0.01,-0.0111,-0.0127,-0.016,-0.017,-0.0186,-0.019,-0.0243,-0.0252,-0.0288,-0.0315,-0.0323,-0.0314,-0.0344,-0.0403,-0.0402,-0.0402,-0.0326,-0.032,-0.0315,0,0,0,0,0,-0.0055,-0.0041,-0.0056,-0.0061,-0.0103,-0.0126,-0.0134,-0.017,-0.0185,-0.0186,-0.0222,-0.025,-0.0318,-0.0317,-0.0327,-0.0319,-0.0403,-0.0402,-0.0402,-0.0329,-0.0321,-0.0315,0,0,0,0,0,0,-0.0017,-0.0047,-0.0064,-0.006,-0.0086,-0.0134,-0.0136,-0.0162,-0.0193,-0.0193,-0.0246,-0.0257,-0.0276,-0.0308,-0.0305,-0.0338,-0.0366,-0.0367,-0.0306,-0.03,-0.0295,-0.0268,-0.0347,0,0,0,0,0,-0.0006,-0.0005,-0.0041,-0.0038,-0.0046,-0.009,-0.0104,-0.0126,-0.0158,-0.0173,-0.0211,-0.025,-0.0283,-0.0298,-0.0333,-0.0346,-0.0375,-0.0349,-0.0344,-0.0339,-0.0325,-0.0369,-0.0366,-0.04,-0.04,-0.04,0,0,0.0008,-0.0007,-0.0007,-0.003,-0.0054,-0.0052,-0.0099,-0.0108,-0.0109,-0.0176,-0.0187,-0.0232,-0.0283,-0.0301,-0.0312,-0.0324,-0.0342,-0.0338,-0.0333,-0.0322,-0.0368,-0.0364,-0.0361,-0.0399,-0.0399,-0.0399,0,0,0.0047,0.0027,0.0043,0.0029,0.0006,-0.0019,-0.0016,-0.0057,-0.0076,-0.0095,-0.0143,-0.0177,-0.0227,-0.0261,-0.0285,-0.027,-0.0313,-0.0283,-0.0232,-0.0275,-0.0272,-0.027,-0.0289,-0.029,-0.0279,-0.0278,-0.0278,0,0.0066,0.0081,0.0044,0.0058,0.0057,0.0004,0.0025,-0.0003,-0.0046,-0.0053,-0.0084,-0.0161,-0.0208,-0.0228,-0.0227,-0.0256,-0.028,-0.0251,-0.0266,-0.0265,-0.0264,-0.0285,-0.0286,-0.0275,-0.0275,-0.0275,-0.0276,0,0.0116,0.0128,0.0138,0.0139,0.0131,0.014,0.0105,0.0094,0.0062,0.0031,-0.0001,-0.0076,-0.0116,-0.0145,-0.0183,-0.0198,-0.0216,-0.0254,-0.0278,-0.0255,-0.0279,-0.0282,-0.0269,-0.0271,-0.0272,-0.0273,0,0,0.0165,0.0173,0.0178,0.0195,0.0178,0.018,0.0185,0.0174,0.019,0.0121,0.0126,0.0044,-0.0,-0.003,-0.0091,-0.0135,-0.0156,-0.0184,-0.0189,-0.0194,-0.0232,-0.0239,-0.0244,-0.0199,-0.02,-0.02,-0.0246,0,0.0218,0.027,0.0253,0.0299,0.0325,0.0286,0.0299,0.0281,0.0254,0.0244,0.0154,0.0132,0.0045,0.0028,-0.0031,-0.012,-0.0162,-0.0139,-0.0261,-0.0264,-0.0266,-0.0247,-0.0221,-0.026,-0.0249,-0.025,-0.025,0,0.0279,0.0306,0.0365,0.0393,0.04,0.0416,0.0436,0.0443,0.0413,0.0392,0.0343,0.0271,0.0202,0.0118,-0.0022,-0.0003,-0.0104,-0.0187,-0.0191,-0.0226,-0.0277,-0.0285,-0.0266,-0.0457,-0.0255,-0.0255,-0.0254,0,0.0345,0.0386,0.0438,0.0446,0.0465,0.0485,0.0498,0.0493,0.0527,0.0492,0.0504,0.0395,0.0359,0.0207,0.0033,0.0008,-0.0122,-0.0181,-0.0284,-0.0285,-0.03,-0.0302,-0.0471,-0.0282,-0.0282,-0.0282,-0.0282,0,0.0414,0.0454,0.0475,0.0502,0.058,0.0561,0.064,0.0637,0.0656,0.0712,0.059,0.0607,0.0378,0.0269,0.0087,-0.009,-0.0082,-0.0261,-0.0297,-0.0271,-0.027,-0.0467,-0.0596,-0.0284,-0.0284,-0.0283,-0.0283,0,0.048,0.0489,0.0553,0.0589,0.0615,0.0672,0.0752,0.0808,0.0806,0.0875,0.087,0.078,0.0645,0.0411,0.0183,0.0006,-0.0295,-0.0254,-0.0194,-0.0223,-0.0501,-0.0626,-0.0844,-0.0923,-0.0369,-0.0369,-0.037,0,0.0518,0.0559,0.0631,0.0686,0.0707,0.0793,0.0862,0.0892,0.0967,0.0991,0.1039,0.0929,0.0885,0.0555,0.0223,-0.0081,-0.0296,-0.0272,-0.0329,-0.0502,-0.0668,-0.0765,-0.0821,-0.0315,-0.0315,-0.0315,-0.0315,0,0.0593,0.0613,0.0668,0.0791,0.087,0.0972,0.1074,0.116,0.1199,0.1262,0.1326,0.1291,0.0976,0.0696,0.0266,0.0033,-0.041,-0.0279,-0.0484,-0.0657,-0.0748,-0.0843,-0.029,-0.0314,-0.0315,-0.0315,-0.0315,-0.0315,0.065,0.0706,0.0784,0.0903,0.1,0.1133,0.1238,0.1352,0.1492,0.1597,0.1557,0.1557,0.1118,0.055,0.0212,-0.0385,-0.0421,-0.0572,-0.0709,-0.079,-0.0872,-0.0303,-0.0357,-0.0357,-0.0358,-0.0358,-0.0358,0,0.0723,0.0787,0.0896,0.1029,0.1148,0.1189,0.1367,0.1479,0.1658,0.1767,0.1831,0.1634,0.1097,0.0524,-0.0277,-0.0718,-0.089,-0.0979,-0.1122,-0.116,-0.0667,-0.067,-0.0762,-0.0762,-0.0762,-0.0761,-0.0761,-0.0761,0.076,0.0872,0.0927,0.1131,0.123,0.1399,0.1506,0.1673,0.1802,0.1949,0.1974,0.1951,0.151,0.0061,-0.0915,-0.115,-0.1478,-0.1571,-0.1729,-0.1411,-0.1384,-0.1358,-0.139,-0.1632,-0.1633,-0.2136,-0.2141,-0.2145]}],[{"header":{"parameterUnit":"m.s-1","parameterCategory":2,"la1":30.2991,"la2":30.254,"lo1":-89.0895,"lo2":-89.0444,"dy":0.0017,"dx":0.0017,"nx":28,"ny":28,"refTime":"2024-12-02T03:00:00:Z","depth":"2","parameterNumber":2,"parameterNumberName":"U-component_of_CURRENTS"},"data":[0,0,0,0,0,0,0,0,0,0,0,0,0,0,0,0,0,0,0,0,0,0,0,0,0,0,0,0,0,0,0,0,0,0,0,0,0,0,0,0,0,0,0,0,0,0,0,0,0,0,0,0,0,0,0,0,0,0,0.311,0.3111,0,0.3144,0.3144,0.3144,0.3141,0.314,0.314,0.314,0.3139,0.3139,0.3139,0,0,0,0,0,0,0,0,0,0,0,0,0,0.3047,0.3048,0.311,0.3111,0.3111,0.3144,0.3144,0.3144,0.3141,0.314,0.314,0.314,0.3139,0.3139,0.3139,0,0,0,0,0,0,0,0,0,0,0,0,0,0.3074,0.3048,0.311,0.3116,0.3117,0.3144,0.3144,0.3144,0.3141,0.314,0.314,0.314,0.3139,0.3139,0.3139,0.3148,0,0,0.314,0.314,0,0,0,0,0,0,0,0,0.3073,0.3076,0.3114,0.3116,0.3117,0.314,0.3122,0.3145,0.3141,0.3128,0.314,0.314,0.3138,0.3139,0.3142,0.3148,0.3148,0.314,0.314,0.314,0.3141,0,0,0,0,0,0,0,0.3071,0.3075,0.312,0.3115,0.3117,0.3119,0.3122,0.3126,0.3132,0.3129,0.313,0.3139,0.3138,0.3142,0.3142,0.3148,0.314,0.314,0.3141,0.3141,0.3219,0.322,0,0,0,0,0,0,0.3073,0.3073,0.3119,0.3122,0.3097,0.3121,0.3124,0.3131,0.3133,0.3134,0.3139,0.3139,0.3141,0.3141,0.3142,0.3199,0.314,0.3141,0.3141,0.3217,0.3219,0.3221,0,0,0,0,0,0,0.3072,0.3077,0.3118,0.31,0.3106,0.3122,0.313,0.3132,0.3146,0.3141,0.3141,0.3154,0.3141,0.3141,0.3163,0.3197,0.3141,0.3141,0.3214,0.3217,0.322,0.3284,0,0,0,0,0,0,0.307,0.3076,0.3084,0.3101,0.3107,0.3145,0.3131,0.3133,0.3153,0.3153,0.3153,0.3152,0.3141,0.3163,0.3164,0.3197,0.3141,0.3212,0.3216,0.3219,0.328,0.3289,0.3297,0,0,0,0,0,0.3067,0.3079,0.3084,0.309,0.3117,0.3146,0.315,0.3157,0.3154,0.3167,0.3171,0.3153,0.3186,0.3165,0.3165,0.3199,0.321,0.3215,0.3219,0.3276,0.3287,0.3297,0,0,0,0,0,0,0.3053,0.3081,0.3086,0.3105,0.313,0.3147,0.3162,0.3168,0.3181,0.3183,0.3171,0.3171,0.3208,0.3196,0.3172,0.3234,0.3198,0.3202,0.3241,0.3252,0.326,0.328,0.3142,0,0,0,0,0,0.3056,0.3073,0.31,0.3116,0.3132,0.315,0.3164,0.3173,0.3187,0.3193,0.3195,0.3204,0.3225,0.3231,0.3243,0.327,0.3287,0.3295,0.3303,0.3311,0.3329,0.3399,0.3415,0.3235,0.3235,0.3235,0,0,0.3053,0.3073,0.3081,0.3116,0.3134,0.3163,0.3157,0.3187,0.3213,0.3191,0.3224,0.3234,0.324,0.3277,0.3292,0.327,0.3369,0.3316,0.3322,0.3337,0.3405,0.3423,0.3438,0.3238,0.3237,0.3237,0,0,0.306,0.3079,0.3098,0.3125,0.3164,0.318,0.3193,0.3222,0.3239,0.3271,0.3273,0.3309,0.3319,0.3345,0.3356,0.3421,0.3415,0.342,0.3475,0.3542,0.3558,0.3572,0.3605,0.3622,0.342,0.342,0.342,0,0.3057,0.3087,0.3108,0.3139,0.3166,0.319,0.3222,0.3247,0.3279,0.3306,0.3289,0.3357,0.3359,0.3427,0.3451,0.3442,0.3467,0.3431,0.3554,0.3568,0.3582,0.3613,0.363,0.3424,0.3423,0.3423,0.3423,0,0.308,0.3111,0.3129,0.3175,0.3204,0.324,0.3279,0.3312,0.3333,0.3362,0.3432,0.3448,0.3491,0.3501,0.3493,0.3592,0.3575,0.356,0.3527,0.3604,0.3631,0.3648,0.3429,0.3428,0.3427,0.3426,0,0,0.3051,0.313,0.3135,0.3163,0.323,0.3249,0.3312,0.3375,0.3429,0.3461,0.3534,0.358,0.3601,0.3617,0.3624,0.3681,0.3787,0.3663,0.3665,0.3695,0.3923,0.3845,0.3855,0.3797,0.38,0.3803,0.39,0,0.3065,0.3117,0.3162,0.3215,0.3245,0.3302,0.336,0.342,0.3479,0.3555,0.3601,0.3671,0.3642,0.368,0.3734,0.3786,0.3838,0.3761,0.3847,0.3849,0.377,0.3875,0.3555,0.361,0.3917,0.3919,0.3921,0,0.3069,0.3106,0.3158,0.324,0.3261,0.33,0.3401,0.3464,0.3585,0.364,0.3723,0.3762,0.3861,0.3821,0.3947,0.3901,0.3923,0.3948,0.3952,0.3872,0.3804,0.3587,0.3629,0.3949,0.3947,0.3945,0.3943,0,0.3016,0.3101,0.3138,0.3165,0.3263,0.3303,0.3366,0.3484,0.3558,0.371,0.3775,0.3888,0.3952,0.4017,0.4054,0.4021,0.418,0.4134,0.4079,0.4072,0.3814,0.3779,0.4228,0.4228,0.4228,0.4227,0.4227,0,0.3006,0.3034,0.3116,0.3133,0.3196,0.3276,0.3369,0.3464,0.3608,0.3697,0.3815,0.3895,0.401,0.4093,0.4113,0.4154,0.4227,0.4121,0.4112,0.3825,0.3791,0.4091,0.4074,0.4231,0.423,0.423,0.4229,0,0.2942,0.2998,0.3043,0.3138,0.3172,0.3215,0.3356,0.3425,0.358,0.3703,0.3755,0.3935,0.4052,0.4134,0.4254,0.4221,0.4273,0.4258,0.3901,0.3849,0.4101,0.4086,0.4225,0.4224,0.4222,0.4221,0.422,0,0.2916,0.2932,0.3022,0.3045,0.309,0.317,0.3228,0.3394,0.3472,0.3699,0.3743,0.3921,0.4007,0.4164,0.4165,0.4209,0.4262,0.3915,0.3799,0.4134,0.4111,0.4098,0.4085,0.3471,0.3464,0.3459,0.3454,0,0.2862,0.2895,0.2926,0.2979,0.3028,0.3086,0.3181,0.3235,0.3421,0.3523,0.3659,0.3761,0.393,0.385,0.393,0.3903,0.3888,0.3801,0.4269,0.3527,0.3433,0.3407,0.3418,0.3404,0.3409,0.3412,0.3415,0.3417,0.2814,0.2818,0.2857,0.29,0.2946,0.2971,0.2976,0.3075,0.3162,0.3272,0.3452,0.3491,0.3577,0.3548,0.3465,0.3405,0.3671,0.3489,0.3502,0.3523,0.3424,0.3333,0.3265,0.3269,0.3273,0.3276,0.3279,0,0.2735,0.2748,0.2777,0.2801,0.2788,0.2861,0.2912,0.2878,0.2899,0.3035,0.3118,0.2916,0.2903,0.2978,0.2824,0.2857,0.2793,0.2725,0.2595,0.265,0.2698,0.2551,0.2164,0.216,0.2156,0.2153,0,0,0.2692,0.2671,0.2682,0.2629,0.2641,0.2576,0.2566,0.2544,0.2587,0.2558,0.2552,0.2779,0.2904,0.2479,0.2451,0.2271,0.2432,0.2187,0.3092,0.2995,0.3037,0.3165,0.3006,0,0,0,0,0]},{"header":{"parameterUnit":"m.s-1","parameterCategory":2,"la1":30.2991,"la2":30.254,"lo1":-89.0895,"lo2":-89.0444,"dy":0.0017,"dx":0.0017,"nx":28,"ny":28,"refTime":"2024-12-02T03:00:00:Z","depth":"2","parameterNumber":3,"parameterNumberName":"V-component_of_CURRENTS"},"data":[0,0,0,0,0,0,0,0,0,0,0,0,0,0,0,0,0,0,0,0,0,0,0,0,0,0,0,0,0,0,0,0,0,0,0,0,0,0,0,0,0,0,0,0,0,0,0,0,0,0,0,0,0,0,0,0,0,0,0.0042,0.0042,0,-0.0035,-0.0036,-0.0037,-0.0091,-0.0091,-0.0091,-0.0091,-0.0172,-0.0174,-0.0176,0,0,0,0,0,0,0,0,0,0,0,0,0,0.0085,0.0085,0.0042,0.0042,0.0041,-0.0034,-0.0036,-0.0037,-0.0091,-0.0091,-0.0091,-0.0092,-0.0171,-0.0174,-0.0176,0,0,0,0,0,0,0,0,0,0,0,0,0,0.0042,0.0085,0.0043,0.0006,0.0003,-0.0034,-0.0036,-0.0037,-0.0091,-0.0091,-0.0091,-0.0092,-0.0171,-0.0173,-0.0176,-0.0187,0,0,-0.0185,-0.0186,0,0,0,0,0,0,0,0,0.0044,0.004,0.0013,0.0009,0.0005,-0.0052,-0.005,-0.0087,-0.0091,-0.0057,-0.0091,-0.0092,-0.013,-0.0137,-0.0153,-0.0191,-0.0195,-0.0185,-0.0187,-0.0188,-0.0189,0,0,0,0,0,0,0,0.0047,0.0042,0.001,0.0012,0.0007,-0.0025,-0.0032,-0.0058,-0.0093,-0.006,-0.0064,-0.0069,-0.0133,-0.015,-0.0156,-0.0196,-0.0185,-0.0188,-0.019,-0.0191,-0.0246,-0.0246,0,0,0,0,0,0,0.0064,0.0046,0.0012,0.0008,0.0026,-0.0025,-0.0033,-0.0035,-0.0093,-0.0101,-0.0069,-0.0071,-0.0145,-0.0152,-0.0159,-0.016,-0.0188,-0.0191,-0.0193,-0.0246,-0.0246,-0.0246,0,0,0,0,0,0,0.0066,0.0062,0.0015,0.0026,0.0018,-0.0025,-0.0028,-0.0036,-0.0051,-0.0098,-0.0108,-0.0074,-0.0146,-0.0155,-0.0175,-0.0164,-0.0192,-0.0195,-0.0247,-0.0246,-0.0246,-0.0172,0,0,0,0,0,0,0.0067,0.0063,0.0067,0.0028,0.0018,0.0005,-0.0027,-0.0037,-0.0053,-0.0057,-0.0106,-0.0114,-0.0147,-0.017,-0.0177,-0.0168,-0.0197,-0.0247,-0.0247,-0.0246,-0.0175,-0.0169,-0.0164,0,0,0,0,0,0.0069,0.0082,0.0067,0.0063,0.0025,0.0005,-0.0002,-0.0037,-0.0053,-0.0053,-0.0086,-0.0113,-0.0172,-0.0172,-0.0181,-0.0172,-0.0247,-0.0247,-0.0246,-0.0177,-0.017,-0.0164,0,0,0,0,0,0,0.0102,0.0076,0.006,0.0063,0.004,-0.0003,-0.0005,-0.003,-0.0058,-0.006,-0.0108,-0.0118,-0.0134,-0.0163,-0.0161,-0.0188,-0.0215,-0.0216,-0.0159,-0.0153,-0.0148,-0.0121,-0.02,0,0,0,0,0,0.0112,0.0114,0.0082,0.0084,0.0076,0.0036,0.0023,0.0002,-0.0027,-0.0041,-0.0076,-0.0112,-0.014,-0.0152,-0.0184,-0.0194,-0.0222,-0.0196,-0.019,-0.0186,-0.017,-0.0208,-0.0204,-0.0244,-0.0244,-0.0244,0,0,0.0125,0.0111,0.0111,0.0091,0.0069,0.0072,0.0027,0.0018,0.0019,-0.0043,-0.0053,-0.0095,-0.0139,-0.0154,-0.0163,-0.0174,-0.0189,-0.0185,-0.018,-0.0168,-0.0207,-0.0203,-0.0199,-0.0243,-0.0243,-0.0243,0,0,0.016,0.0141,0.0157,0.0144,0.0123,0.0101,0.0103,0.0066,0.0048,0.0032,-0.0012,-0.0042,-0.0088,-0.0115,-0.0135,-0.0118,-0.0162,-0.0133,-0.0081,-0.0117,-0.0114,-0.0111,-0.014,-0.014,-0.0127,-0.0127,-0.0127,0,0.0176,0.0192,0.0158,0.0172,0.0172,0.0122,0.0143,0.0118,0.0078,0.0074,0.0041,-0.0025,-0.0067,-0.0078,-0.0077,-0.0104,-0.0131,-0.0099,-0.0109,-0.0107,-0.0106,-0.0136,-0.0137,-0.0124,-0.0124,-0.0124,-0.0125,0,0.0224,0.0236,0.0246,0.0248,0.0242,0.0252,0.022,0.021,0.0179,0.0152,0.0126,0.0059,0.0025,-0.0001,-0.0035,-0.0043,-0.0068,-0.0099,-0.012,-0.0097,-0.013,-0.0133,-0.0118,-0.012,-0.0121,-0.0122,0,0,0.0267,0.0278,0.0283,0.0301,0.0287,0.029,0.0296,0.0291,0.0307,0.0243,0.0251,0.0181,0.0139,0.0114,0.0059,0.0022,-0.0001,-0.0028,-0.0032,-0.0047,-0.0075,-0.0094,-0.01,-0.0037,-0.0037,-0.0037,-0.0101,0,0.0317,0.0368,0.0355,0.0402,0.0428,0.0392,0.0408,0.0394,0.0369,0.0362,0.0283,0.0265,0.0185,0.0169,0.0119,0.0033,-0.0005,0.002,-0.0103,-0.0107,-0.0119,-0.0103,-0.0075,-0.013,-0.0104,-0.0105,-0.0105,0,0.0373,0.0402,0.046,0.0493,0.0501,0.0517,0.054,0.0549,0.0525,0.0505,0.0463,0.0397,0.0336,0.0259,0.0127,0.0147,0.0048,-0.003,-0.0035,-0.0076,-0.013,-0.0152,-0.0137,-0.0111,-0.011,-0.011,-0.011,0,0.0434,0.0478,0.053,0.0538,0.0563,0.0583,0.0598,0.0596,0.063,0.06,0.061,0.0514,0.0478,0.0339,0.0169,0.015,0.0019,-0.0029,-0.0139,-0.0142,-0.0153,-0.0156,-0.0121,-0.012,-0.012,-0.012,-0.012,0,0.0498,0.0539,0.0564,0.059,0.0668,0.0654,0.0731,0.0731,0.0751,0.0805,0.0693,0.0706,0.0495,0.0387,0.0216,0.0039,0.0053,-0.0119,-0.0156,-0.0127,-0.0127,-0.0141,-0.0142,-0.0123,-0.0122,-0.0122,-0.0121,0,0.0559,0.057,0.0635,0.0674,0.07,0.0755,0.0836,0.0891,0.0889,0.0954,0.0948,0.086,0.0721,0.0501,0.0285,0.0119,-0.0063,-0.0133,-0.0081,-0.0111,-0.0212,-0.0209,-0.0256,-0.0257,-0.0258,-0.0259,-0.0259,0,0.0594,0.0634,0.0708,0.0761,0.0783,0.0867,0.0936,0.0967,0.1039,0.1055,0.1099,0.0983,0.0928,0.0602,0.0291,-0.0002,-0.0052,-0.0177,-0.0215,-0.0192,-0.0225,-0.022,-0.0216,-0.0204,-0.0204,-0.0204,-0.0204,0,0.0665,0.0685,0.074,0.0858,0.0935,0.1036,0.1134,0.1214,0.1252,0.1303,0.1347,0.1301,0.0988,0.0703,0.029,0.0085,-0.0131,-0.0189,-0.0176,-0.0171,-0.0149,-0.0178,-0.0175,-0.0206,-0.0205,-0.0205,-0.0205,-0.0205,0.0717,0.0772,0.0848,0.0962,0.1057,0.1183,0.1283,0.1385,0.151,0.1582,0.1537,0.1469,0.1131,0.0614,0.0253,-0.0137,-0.0121,-0.0262,-0.026,-0.0258,-0.0238,-0.0217,-0.0283,-0.0284,-0.0284,-0.0284,-0.0284,0,0.0786,0.0847,0.0951,0.1079,0.1193,0.1235,0.1402,0.1496,0.1646,0.1698,0.1728,0.1408,0.108,0.0678,0.0107,-0.0225,-0.0257,-0.0336,-0.03,-0.0295,-0.0292,-0.0273,-0.0329,-0.0331,-0.0332,-0.0333,0,0,0.082,0.0925,0.0978,0.117,0.1265,0.1425,0.1524,0.1654,0.173,0.1787,0.1749,0.1673,0.1193,0.0779,0.0324,-0.0007,-0.0079,-0.0077,-0.0004,0.0098,0.0105,-0.0211,-0.0172,0,0,0,0,0]}],[{"header":{"parameterUnit":"m.s-1","parameterCategory":2,"la1":30.2991,"la2":30.254,"lo1":-89.0895,"lo2":-89.0444,"dy":0.0017,"dx":0.0017,"nx":28,"ny":28,"refTime":"2024-12-02T03:00:00:Z","depth":"4","parameterNumber":2,"parameterNumberName":"U-component_of_CURRENTS"},"data":[0,0,0,0,0,0,0,0,0,0,0,0,0,0,0,0,0,0,0,0,0,0,0,0,0,0,0,0,0,0,0,0,0,0,0,0,0,0,0,0,0,0,0,0,0,0,0,0,0,0,0,0,0,0,0,0,0,0,0.206,0.2061,0,0.2132,0.2133,0.2133,0.2195,0.2196,0.2197,0.2198,0.2273,0.2274,0.2275,0,0,0,0,0,0,0,0,0,0,0,0,0,0.1966,0.1967,0.206,0.2061,0.2062,0.2132,0.2133,0.2133,0.2195,0.2196,0.2197,0.2198,0.2272,0.2274,0.2275,0,0,0,0,0,0,0,0,0,0,0,0,0,0.2017,0.1968,0.206,0.2103,0.2108,0.2132,0.2133,0.2134,0.2195,0.2196,0.2197,0.2199,0.2272,0.2273,0.2275,0.2259,0,0,0.228,0.2281,0,0,0,0,0,0,0,0,0.2014,0.202,0.2096,0.21,0.2106,0.2158,0.2127,0.2176,0.2194,0.2159,0.2198,0.2199,0.2235,0.224,0.2247,0.2262,0.2266,0.2281,0.2282,0.2282,0.2283,0,0,0,0,0,0,0,0.201,0.2017,0.2086,0.2097,0.2103,0.2115,0.2124,0.2136,0.2187,0.2163,0.2168,0.2179,0.2238,0.2245,0.2249,0.2267,0.228,0.2282,0.2283,0.2284,0.2406,0.2408,0,0,0,0,0,0,0.2005,0.2014,0.2084,0.2089,0.2065,0.2116,0.2126,0.2138,0.2187,0.2197,0.2178,0.2181,0.2242,0.2247,0.2252,0.2354,0.2282,0.2284,0.2285,0.2404,0.2407,0.2409,0,0,0,0,0,0,0.2003,0.2011,0.2081,0.2055,0.2065,0.2117,0.213,0.2139,0.2193,0.2199,0.2208,0.2228,0.2243,0.225,0.2307,0.2353,0.2285,0.2286,0.2402,0.2405,0.2408,0.2482,0,0,0,0,0,0,0.2,0.2009,0.2037,0.2054,0.2066,0.2125,0.2129,0.2139,0.2195,0.2203,0.2244,0.225,0.2244,0.2305,0.2309,0.2354,0.2288,0.2399,0.2403,0.2407,0.2477,0.2488,0.2497,0,0,0,0,0,0.1996,0.2021,0.2038,0.2048,0.2096,0.2126,0.2134,0.2173,0.2197,0.2226,0.2261,0.2251,0.2334,0.2308,0.2312,0.2359,0.2397,0.2402,0.2407,0.2473,0.2486,0.2497,0,0,0,0,0,0,0.1996,0.203,0.205,0.2085,0.2119,0.2138,0.2176,0.2198,0.2247,0.227,0.2274,0.2283,0.2351,0.2346,0.2317,0.2408,0.2366,0.2372,0.2415,0.2427,0.2437,0.2438,0.2289,0,0,0,0,0,0.2007,0.204,0.2068,0.2104,0.2124,0.2159,0.2186,0.2213,0.2247,0.2273,0.2301,0.2335,0.2365,0.2391,0.2412,0.2459,0.2462,0.2495,0.2505,0.2513,0.2519,0.2554,0.2568,0.2426,0.2426,0.2425,0,0,0.2017,0.2043,0.2063,0.2108,0.214,0.2173,0.218,0.2234,0.2274,0.2271,0.2349,0.2373,0.2387,0.2443,0.2473,0.2451,0.2561,0.252,0.2527,0.2528,0.2561,0.2575,0.2587,0.2429,0.2428,0.2428,0,0,0.2038,0.208,0.211,0.2142,0.2198,0.2217,0.2243,0.2289,0.233,0.2392,0.2407,0.2461,0.2507,0.2528,0.254,0.2619,0.2612,0.2636,0.2688,0.2723,0.2735,0.2745,0.2787,0.28,0.2641,0.2641,0.2641,0,0.2054,0.2092,0.2125,0.216,0.2196,0.2241,0.228,0.232,0.2384,0.242,0.2432,0.2526,0.2543,0.2605,0.264,0.2641,0.2663,0.2639,0.2735,0.2745,0.2754,0.2794,0.2808,0.2645,0.2645,0.2645,0.2644,0,0.2079,0.213,0.2155,0.2213,0.2253,0.2301,0.235,0.2408,0.2463,0.2498,0.259,0.262,0.2675,0.2694,0.2694,0.2775,0.2772,0.2741,0.27,0.2773,0.2811,0.2824,0.2651,0.265,0.2649,0.2648,0,0,0.206,0.2155,0.2168,0.2207,0.2291,0.2317,0.2398,0.2469,0.2533,0.26,0.2677,0.2741,0.2774,0.2791,0.2808,0.2843,0.2936,0.2832,0.2831,0.2867,0.3032,0.2841,0.2837,0.2926,0.2928,0.293,0.304,0,0.2077,0.2143,0.2194,0.2269,0.2305,0.2379,0.2446,0.2521,0.2596,0.2682,0.2733,0.2815,0.2806,0.2857,0.2891,0.2927,0.297,0.291,0.2962,0.2964,0.2779,0.2845,0.2937,0.3049,0.3052,0.3054,0.3055,0,0.2075,0.2124,0.2198,0.2297,0.2324,0.2384,0.2502,0.2572,0.2693,0.2759,0.2846,0.2892,0.2982,0.2954,0.305,0.3017,0.3039,0.3052,0.3056,0.2855,0.2795,0.2958,0.3078,0.3076,0.3075,0.3073,0.3072,0,0.2015,0.2122,0.2184,0.2219,0.2337,0.2401,0.2478,0.2602,0.2676,0.2827,0.2896,0.2993,0.3065,0.3103,0.3144,0.3116,0.3229,0.3184,0.3034,0.3023,0.3128,0.3116,0.3246,0.3246,0.3246,0.3245,0.3245,0,0.1985,0.2039,0.2171,0.2202,0.2289,0.2387,0.2499,0.2595,0.2738,0.2816,0.2941,0.3002,0.3108,0.3175,0.3187,0.315,0.3268,0.3054,0.3034,0.3161,0.3151,0.3138,0.3124,0.325,0.3249,0.3248,0.3247,0,0.1904,0.1993,0.207,0.2212,0.2264,0.233,0.2501,0.257,0.2731,0.284,0.2896,0.3048,0.3128,0.3206,0.3285,0.319,0.3185,0.3145,0.3308,0.3295,0.295,0.294,0.2978,0.2972,0.2967,0.2963,0.2959,0,0.1863,0.1898,0.2059,0.2107,0.2183,0.23,0.2374,0.255,0.2618,0.2828,0.2853,0.3008,0.3081,0.3042,0.314,0.3158,0.3116,0.3101,0.2986,0.2944,0.2922,0.2919,0.2915,0.2951,0.295,0.2949,0.2947,0,0.1782,0.1863,0.1925,0.2028,0.2117,0.2195,0.2315,0.2347,0.2533,0.2701,0.2739,0.2781,0.2866,0.2912,0.296,0.2959,0.3096,0.3048,0.3056,0.2949,0.2912,0.2895,0.2897,0.293,0.2933,0.2934,0.2935,0,0.1729,0.1751,0.1846,0.1921,0.2023,0.2052,0.2132,0.2197,0.2284,0.2506,0.2513,0.2672,0.2827,0.2811,0.2849,0.2842,0.2785,0.2678,0.2705,0.2725,0.2589,0.2502,0.2383,0,0,0,0,0,0.1658,0.1667,0.1726,0.179,0.1883,0.1939,0.207,0.215,0.2326,0.2287,0.2391,0.2453,0.2502,0.259,0.253,0.2747,0.2807,0.2667,0.2699,0.2834,0.2854,0.2714,0,0,0,0,0,0,0.1606,0.1658,0.1677,0.1665,0.1682,0.1758,0.1831,0.1949,0.1932,0.212,0.2159,0.2304,0.2392,0.2509,0.2483,0.2511,0.248,0.2777,0.277,0.2823,0.2841,0.2857,0.272,0,0,0,0,0]},{"header":{"parameterUnit":"m.s-1","parameterCategory":2,"la1":30.2991,"la2":30.254,"lo1":-89.0895,"lo2":-89.0444,"dy":0.0017,"dx":0.0017,"nx":28,"ny":28,"refTime":"2024-12-02T03:00:00:Z","depth":"4","parameterNumber":3,"parameterNumberName":"V-component_of_CURRENTS"},"data":[0,0,0,0,0,0,0,0,0,0,0,0,0,0,0,0,0,0,0,0,0,0,0,0,0,0,0,0,0,0,0,0,0,0,0,0,0,0,0,0,0,0,0,0,0,0,0,0,0,0,0,0,0,0,0,0,0,0,0.0119,0.0118,0,0.0068,0.0068,0.0067,0.0031,0.003,0.003,0.003,-0.0026,-0.0027,-0.0028,0,0,0,0,0,0,0,0,0,0,0,0,0,0.0146,0.0145,0.0119,0.0118,0.0118,0.0068,0.0068,0.0067,0.0031,0.003,0.003,0.003,-0.0025,-0.0027,-0.0029,0,0,0,0,0,0,0,0,0,0,0,0,0,0.0117,0.0145,0.0119,0.0095,0.0092,0.0069,0.0068,0.0067,0.0031,0.003,0.003,0.003,-0.0025,-0.0027,-0.0029,-0.0036,0,0,-0.0035,-0.0036,0,0,0,0,0,0,0,0,0.0119,0.0116,0.0099,0.0097,0.0094,0.0057,0.0057,0.0033,0.0031,0.0053,0.003,0.003,0.0002,-0.0002,-0.0013,-0.0038,-0.0041,-0.0035,-0.0036,-0.0037,-0.0038,0,0,0,0,0,0,0,0.0121,0.0118,0.0097,0.0099,0.0095,0.0074,0.0069,0.0052,0.0028,0.0051,0.0048,0.0045,0.0001,-0.0011,-0.0014,-0.0042,-0.0035,-0.0037,-0.0038,-0.0039,-0.0074,-0.0074,0,0,0,0,0,0,0.0132,0.012,0.0099,0.0096,0.0107,0.0074,0.0069,0.0068,0.0029,0.0023,0.0045,0.0043,-0.0007,-0.0012,-0.0016,-0.0012,-0.0037,-0.0039,-0.004,-0.0074,-0.0074,-0.0074,0,0,0,0,0,0,0.0133,0.0131,0.0101,0.0108,0.0103,0.0074,0.0073,0.0067,0.0058,0.0025,0.0019,0.0043,-0.0008,-0.0014,-0.0026,-0.0015,-0.004,-0.0042,-0.0075,-0.0074,-0.0074,-0.0013,0,0,0,0,0,0,0.0134,0.0132,0.0136,0.0109,0.0103,0.0095,0.0073,0.0066,0.0057,0.0054,0.0021,0.0015,-0.0008,-0.0023,-0.0028,-0.0018,-0.0043,-0.0075,-0.0074,-0.0074,-0.0015,-0.001,-0.0006,0,0,0,0,0,0.0135,0.0145,0.0136,0.0134,0.0109,0.0095,0.009,0.0067,0.0057,0.0057,0.0036,0.0016,-0.0024,-0.0024,-0.003,-0.0021,-0.0075,-0.0075,-0.0074,-0.0017,-0.0011,-0.0006,0,0,0,0,0,0,0.0158,0.0141,0.0131,0.0135,0.012,0.009,0.0089,0.0073,0.0055,0.0055,0.002,0.0014,0.0004,-0.0017,-0.0016,-0.0031,-0.0053,-0.0054,-0.0008,-0.0003,0.0002,0.0024,-0.0045,0,0,0,0,0,0.0166,0.0169,0.0147,0.015,0.0145,0.0118,0.011,0.0096,0.0077,0.0068,0.0043,0.0019,0.0001,-0.0006,-0.0029,-0.0032,-0.0059,-0.0032,-0.0027,-0.0023,-0.001,-0.0041,-0.0038,-0.0072,-0.0072,-0.0072,0,0,0.0175,0.0167,0.0168,0.0156,0.0142,0.0145,0.0113,0.0108,0.0112,0.0066,0.0063,0.0033,0.0002,-0.0005,-0.001,-0.0019,-0.003,-0.0023,-0.0019,-0.0008,-0.004,-0.0037,-0.0034,-0.0071,-0.0072,-0.0072,0,0,0.0201,0.019,0.0203,0.0195,0.0182,0.0168,0.017,0.0144,0.0134,0.0125,0.0094,0.0075,0.0044,0.0028,0.0015,0.0031,-0.0008,0.002,0.0065,0.0035,0.0038,0.004,0.0002,0.0001,0.0026,0.0026,0.0026,0,0.0213,0.0227,0.0204,0.0215,0.0218,0.0183,0.0201,0.0186,0.0159,0.0159,0.0134,0.0091,0.0062,0.006,0.0064,0.0043,0.0015,0.0049,0.0042,0.0043,0.0045,0.0005,0.0003,0.0029,0.0029,0.0028,0.0028,0,0.0247,0.026,0.0268,0.0274,0.0273,0.0281,0.0262,0.0257,0.0238,0.0221,0.0207,0.016,0.0139,0.0121,0.0098,0.0096,0.0069,0.0048,0.0032,0.0052,0.0009,0.0005,0.0033,0.0032,0.0031,0.0031,0,0,0.0274,0.029,0.0295,0.0314,0.0307,0.0313,0.0322,0.0324,0.0341,0.0296,0.0306,0.0261,0.0232,0.0215,0.0176,0.0149,0.0125,0.0109,0.0106,0.0079,0.0053,0.0034,0.0027,0.0103,0.0103,0.0102,0.0016,0,0.031,0.0353,0.0348,0.0391,0.0413,0.0393,0.041,0.0406,0.0391,0.0389,0.0334,0.0326,0.0269,0.0261,0.0224,0.0153,0.012,0.015,0.0032,0.0028,0.0015,0.0024,0.0102,0.0013,0.0012,0.0012,0.0011,0,0.0349,0.0374,0.0425,0.0463,0.0471,0.0491,0.0518,0.053,0.0516,0.0504,0.0477,0.0428,0.0385,0.033,0.0219,0.024,0.0158,0.0093,0.0088,0.005,0.0004,-0.0011,0.0004,0.0004,0.0005,0.0006,0.0006,0,0.0386,0.0431,0.0478,0.0488,0.0519,0.0543,0.0563,0.0568,0.0597,0.0581,0.059,0.0518,0.0488,0.0377,0.0237,0.023,0.0104,0.0075,-0.0023,-0.0026,-0.0011,-0.0012,-0.0001,-0.0001,-0.0001,-0.0001,-0.0001,0,0.0426,0.0466,0.0503,0.0527,0.0598,0.0598,0.0668,0.0673,0.0693,0.0733,0.0657,0.0657,0.0499,0.0402,0.0266,0.0111,0.0123,-0.0009,-0.0044,0.0015,0.0017,-0.0014,-0.0015,-0.0004,-0.0003,-0.0003,-0.0002,0,0.0459,0.0479,0.054,0.059,0.0618,0.0668,0.0749,0.0796,0.0802,0.0847,0.0845,0.0766,0.0638,0.0466,0.0283,0.0159,0.0007,-0.0053,0.0024,-0.0006,-0.0114,-0.011,-0.0166,-0.0167,-0.0168,-0.0169,-0.017,0,0.0477,0.0512,0.0594,0.0642,0.067,0.0751,0.0813,0.0852,0.0901,0.091,0.093,0.0829,0.0748,0.0482,0.0292,0.0029,-0.0014,-0.0103,-0.0109,-0.01,-0.0128,-0.0123,-0.0118,-0.0172,-0.0172,-0.0172,-0.0172,0,0.0514,0.0543,0.0594,0.0698,0.0773,0.0863,0.0946,0.0991,0.1027,0.1035,0.1001,0.0858,0.0712,0.0491,0.0286,0.0095,-0.005,-0.0115,-0.0114,-0.0121,-0.0107,-0.0133,-0.0127,-0.0176,-0.0176,-0.0175,-0.0175,0,0.0543,0.0585,0.0655,0.0748,0.0846,0.0935,0.0982,0.1032,0.1079,0.1075,0.1063,0.0898,0.0806,0.0525,0.0338,0.0147,0.009,0.0014,0.0006,0.0008,0.0077,0.012,0.01,0,0,0,0,0,0.0567,0.0615,0.0701,0.0797,0.0895,0.0955,0.1052,0.1087,0.1122,0.1107,0.1086,0.0946,0.0669,0.0557,0.0364,0.0302,0.0048,0.0066,-0.0046,-0.0197,-0.0192,-0.0143,0,0,0,0,0,0,0.0579,0.0657,0.0699,0.0821,0.0893,0.1006,0.1069,0.1096,0.1087,0.1089,0.0954,0.0882,0.0623,0.0782,0.0357,0.03,0.0196,-0.0058,-0.0063,-0.0199,-0.0195,-0.0192,-0.014,0,0,0,0,0]}]]